Volver al catálogo

NOAA 16 DEB

ActivoSSO
NORAD 42386·DEBRIS·🇺🇸 United States

Lanzado Sep 21, 2000 desde Vandenberg Space Force Base

Loading…

Próximos Pases (próximas 24 horas)

TLE

ActualizadoSource: Space-Track

Época: Sep 13, 2026, 12:19 UTC

1 42386U 00055SE  26256.51376469  .00002936  00000-0  10171-2 0  9997
2 42386  98.6881 351.3721 0018318 229.3604 130.5990 14.36326351548024

Sigue NOAA 16 DEB en tiempo real con AllMySat

Download on the App Store